Wind_Speed
19 20 20 20 21 22 22 22 23 24 25 25 25 24 23 24 25 24 25 26 27 27 28 30 31 31 33 34 35 35 36 38 39 40 40 40 40 40 40 41 40 40 39 39
20 20 20 20 21 22 22 23 23 23 24 25 25 23 23 23 23 23 23 24 25 26 27 29 30 31 32 33 35 36 37 38 38 38 38 40 40 39 39 40 41 40 40 39
20 20 20 20 21 21 22 22 22 23 24 25 25 23 21 23 23 23 24 25 25 25 26 28 30 31 31 31 33 34 36 37 38 39 39 40 39 39 40 39 40 41 40 39
20 20 20 20 20 21 21 21 22 22 23 23 23 23 20 21 22 23 23 24 24 24 25 27 28 29 30 30 32 33 34 34 35 36 37 38 37 38 39 39 38 39 40 40
20 19 18 19 19 20 21 21 20 20 20 21 21 21 18 20 20 21 23 23 23 23 24 25 27 28 29 30 32 32 33 33 33 34 35 34 35 36 37 38 37 37 37 38
18 17 17 18 18 19 20 20 19 19 19 19 19 20 19 19 19 20 21 21 22 22 23 24 25 27 28 29 30 31 31 32 33 33 34 33 34 34 34 35 35 36 35 35
16 17 17 17 18 18 19 19 18 19 19 19 19 20 18 18 19 20 21 21 21 21 22 23 24 25 26 28 28 29 31 31 31 32 33 32 32 33 34 34 35 35 34 34
16 16 16 17 17 18 19 18 18 19 20 20 19 19 18 18 19 21 22 22 21 22 22 23 24 25 25 26 27 28 29 30 31 32 32 32 32 33 33 34 35 35 34 34
16 16 16 16 17 17 18 18 18 20 20 20 20 19 18 18 20 21 22 22 22 21 22 22 24 24 25 26 27 28 28 29 29 30 30 31 31 32 33 33 34 35 35 34
17 17 16 16 16 17 18 18 18 19 20 21 20 19 18 18 20 21 22 22 22 20 20 21 22 22 23 24 25 26 27 28 29 30 30 29 30 31 32 33 34 34 34 34
18 18 18 17 17 17 17 18 18 19 20 20 21 19 19 19 20 22 21 21 20 20 20 21 21 22 23 23 25 26 27 28 29 29 29 28 29 30 31 32 32 33 33 34
18 19 18 18 18 18 18 18 18 19 19 20 21 20 19 20 20 20 21 21 21 21 21 21 22 22 23 23 24 25 26 27 28 28 28 28 27 28 30 31 31 32 33 33
20 20 20 20 19 18 19 19 19 20 20 21 21 19 19 20 20 20 20 20 20 21 21 21 22 22 22 22 23 24 25 26 26 27 27 28 28 27 29 30 30 31 32 32
20 21 21 21 21 20 20 21 20 21 21 22 21 20 20 21 20 20 20 21 21 20 20 20 21 21 21 21 22 23 24 25 26 26 26 26 26 27 29 29 31 31 31 32
20 21 21 21 21 21 22 22 22 22 22 23 21 22 21 21 21 21 21 21 21 21 20 20 20 21 21 22 22 22 22 23 24 25 26 26 26 27 28 29 29 29 30 30
21 21 21 21 21 21 23 23 23 23 23 23 23 22 22 21 21 22 21 21 22 22 21 21 21 22 21 21 21 21 22 23 24 24 25 25 26 27 27 28 28 29 29 28
21 22 22 21 21 22 22 22 22 22 22 23 23 21 21 20 21 22 22 22 21 21 21 21 21 21 21 21 21 21 21 22 24 25 25 25 25 27 27 28 28 28 28 28
22 23 23 23 23 23 22 21 21 22 22 23 22 21 21 21 22 22 22 22 21 21 21 21 20 20 21 21 21 21 22 23 25 26 27 27 27 27 27 27 27 27 28 28
22 22 23 23 23 22 21 21 21 21 21 21 21 21 21 21 22 23 23 23 22 21 21 21 21 21 22 22 22 22 24 25 25 26 27 28 27 27 27 27 27 28 29 29
23 23 23 23 22 22 21 21 20 20 20 20 21 21 22 22 21 21 22 22 22 22 22 22 21 22 22 22 23 23 24 25 26 27 27 27 27 27 27 27 27 28 28 29
22 23 23 23 22 21 20 20 20 19 19 20 21 22 22 23 22 22 22 22 22 22 22 22 22 22 22 22 22 23 23 25 26 26 25 26 25 25 26 26 26 27 27 27
22 22 22 22 22 20 20 20 19 19 19 20 21 22 22 23 23 23 23 23 23 23 23 22 22 22 23 23 23 23 23 23 24 24 24 24 24 23 24 25 25 26 26 26
21 21 20 20 20 21 21 20 20 20 20 21 21 21 22 23 23 24 24 24 24 23 23 23 23 23 23 23 23 23 23 23 23 24 24 24 24 23 23 23 23 23 23 23
19 19 19 20 20 21 21 21 21 21 21 21 21 22 22 23 23 24 24 24 25 23 23 23 23 23 23 23 23 23 23 24 24 24 24 24 24 23 23 23 23 23 23 23
20 20 20 20 20 21 20 21 22 22 21 21 22 22 23 23 23 24 24 25 24 23 23 23 24 23 23 23 23 23 23 24 24 24 23 23 23 23 23 23 23 23 23 24
20 21 21 21 21 21 20 21 21 22 22 22 22 23 24 24 24 24 24 24 24 23 23 23 24 24 24 24 24 24 24 24 24 24 24 24 23 23 23 24 23 23 23 24
Wind_Direction
287 289 288 286 286 286 287 288 287 285 285 286 285 282 276 273 270 268 266 262 259 257 253 252 253 251 249 248 248 248 250 251 250 251 252 252 255 255 256 258 259 259 259 259
286 288 287 287 287 286 289 289 286 285 285 285 286 283 275 271 270 268 266 262 261 262 259 254 255 254 253 251 250 250 252 253 252 253 254 255 256 257 258 260 258 259 260 259
285 287 286 286 288 289 291 289 287 286 286 285 286 283 277 270 270 270 268 266 266 266 263 257 257 256 255 255 255 254 254 254 253 253 255 256 257 259 260 260 260 260 259 258
283 285 285 286 289 292 294 294 291 290 289 288 287 286 280 276 274 274 271 269 268 268 267 261 259 258 257 258 258 257 255 254 254 255 258 259 260 261 261 260 260 261 259 259
284 283 284 287 291 293 295 297 293 292 292 292 290 288 286 281 278 276 274 272 270 271 271 264 261 261 260 260 259 257 255 255 255 258 261 262 263 263 261 260 260 260 260 259
283 282 284 290 294 295 297 297 293 293 292 293 291 288 287 283 283 281 276 273 273 273 273 269 266 265 262 262 262 258 256 255 255 258 262 263 263 262 261 260 260 260 261 260
284 283 287 292 295 295 297 298 295 295 294 294 293 290 288 285 286 285 282 278 277 277 274 269 266 267 266 264 263 259 256 255 257 260 262 263 261 261 261 262 262 261 260 258
285 284 287 292 294 295 296 297 294 294 295 295 294 292 291 287 289 286 284 282 282 279 275 269 267 269 268 267 264 260 256 257 260 262 262 261 260 260 262 263 263 261 258 257
282 283 287 293 297 296 295 295 294 293 292 296 297 293 291 290 287 286 283 281 282 278 273 271 272 271 269 268 265 260 258 260 262 264 263 260 261 262 263 263 262 261 259 257
279 280 286 292 294 294 294 293 295 297 294 296 297 297 296 291 289 288 285 282 281 277 275 272 273 273 271 269 265 262 265 263 263 263 262 262 265 264 263 263 261 261 258 258
279 280 284 289 291 292 292 290 291 294 296 297 297 298 298 295 292 290 287 283 284 281 280 277 274 272 273 271 269 267 268 267 266 264 264 266 266 265 263 262 258 258 258 259
281 281 284 287 287 287 287 288 290 293 296 296 296 299 297 293 291 291 289 286 284 283 282 280 279 276 275 274 272 270 269 269 267 263 263 267 268 268 266 263 259 258 259 259
282 281 282 285 285 284 283 284 286 290 292 293 293 296 296 292 289 290 288 284 283 283 283 282 282 278 277 277 275 274 273 272 266 264 266 270 270 268 268 263 260 259 259 259
285 285 283 283 285 284 281 281 282 285 288 290 291 293 294 292 289 285 283 282 281 280 282 283 283 278 278 278 279 279 277 273 267 265 268 269 268 268 268 264 260 260 259 258
287 286 287 285 284 284 282 281 283 283 285 288 291 291 291 289 288 286 285 282 282 281 283 285 284 281 280 280 281 281 277 272 267 268 269 269 269 270 269 265 261 259 258 259
286 286 287 286 284 282 281 282 283 283 284 285 288 289 290 288 286 288 287 285 283 286 286 285 284 283 282 281 282 281 275 271 270 272 272 271 270 272 270 268 262 261 262 260
284 283 284 286 286 284 283 286 286 285 284 284 287 288 287 286 286 288 288 288 289 288 288 286 285 283 282 280 279 279 276 275 274 274 275 273 273 273 272 270 267 264 262 260
284 283 283 285 287 287 289 288 288 285 284 285 286 285 286 287 286 288 287 288 290 289 287 285 285 284 285 285 282 279 275 276 278 277 277 275 275 272 271 271 269 266 264 261
284 284 284 286 288 288 289 291 291 288 286 286 285 284 286 287 287 287 288 289 290 289 288 286 285 285 287 285 283 279 278 279 280 279 278 277 274 272 272 272 272 269 265 262
282 282 283 286 288 289 291 292 291 290 288 286 284 283 285 287 287 286 287 288 289 288 288 287 288 288 289 288 285 281 280 281 282 282 280 277 276 274 272 271 271 269 266 265
285 282 283 283 285 287 290 291 289 288 290 289 287 286 286 287 286 286 286 287 289 289 288 289 289 288 288 287 283 282 282 283 284 284 280 278 276 274 273 272 270 268 266 266
286 284 284 283 282 284 287 288 287 287 288 290 291 290 288 287 286 285 286 286 287 288 287 288 288 288 288 286 283 282 282 283 285 284 281 278 277 277 276 275 272 268 266 265
285 284 283 283 282 282 282 284 285 284 286 289 291 292 291 288 285 284 285 286 286 287 286 288 289 289 289 287 285 284 284 284 288 287 284 281 280 280 279 278 274 269 267 265
283 283 283 283 283 282 281 281 283 284 284 287 289 290 291 291 290 287 287 287 287 286 285 287 288 288 287 286 285 285 287 288 288 288 285 283 283 281 278 277 274 270 267 265
283 282 283 284 284 283 281 281 282 285 286 286 288 289 291 293 294 293 291 289 286 283 284 285 285 286 286 285 284 285 287 286 286 287 285 283 282 281 279 277 276 272 268 265
283 282 281 282 283 283 283 284 285 286 287 287 289 289 291 294 294 294 294 290 286 283 284 285 285 284 284 283 282 284 287 287 286 283 282 282 282 281 279 279 278 273 270 268
Height
5728 5728 5725 5724 5722 5721 5719 5717 5715 5713 5710 5708 5706 5704 5702 5700 5698 5697 5696 5696 5695 5696 5697 5698 5699 5701 5702 5704 5706 5708 5710 5712 5714 5717 5719 5721 5722 5724 5724 5725 5726 5727 5728 5729
5723 5722 5720 5718 5716 5714 5712 5710 5709 5707 5704 5701 5700 5698 5697 5694 5692 5692 5691 5690 5690 5690 5691 5691 5692 5693 5694 5696 5698 5699 5701 5703 5705 5706 5708 5711 5712 5713 5714 5715 5716 5717 5717 5718
5717 5717 5714 5713 5711 5709 5707 5705 5703 5701 5698 5695 5693 5693 5691 5689 5687 5686 5685 5683 5683 5683 5684 5684 5684 5685 5686 5687 5689 5690 5692 5693 5695 5696 5698 5700 5701 5703 5704 5705 5706 5706 5707 5708
5711 5710 5709 5707 5706 5703 5701 5699 5697 5695 5692 5690 5688 5686 5686 5683 5682 5680 5678 5677 5677 5676 5677 5677 5677 5678 5679 5679 5680 5681 5682 5683 5685 5686 5687 5689 5690 5692 5693 5694 5695 5696 5697 5697
5706 5705 5704 5702 5701 5698 5697 5694 5692 5690 5687 5685 5683 5681 5681 5678 5676 5675 5673 5672 5671 5670 5670 5670 5670 5671 5671 5671 5672 5672 5673 5674 5675 5677 5678 5679 5680 5681 5683 5683 5685 5685 5686 5687
5701 5700 5699 5697 5695 5693 5691 5689 5687 5685 5682 5681 5679 5677 5676 5673 5672 5670 5668 5667 5666 5665 5664 5664 5664 5664 5664 5664 5664 5664 5665 5666 5667 5668 5669 5670 5671 5671 5673 5673 5674 5675 5675 5676
5696 5695 5693 5692 5691 5689 5687 5685 5683 5680 5678 5676 5674 5672 5672 5669 5667 5664 5663 5662 5660 5659 5658 5658 5657 5657 5657 5657 5656 5656 5657 5658 5660 5660 5661 5661 5661 5662 5663 5664 5665 5665 5666 5667
5691 5690 5689 5687 5686 5684 5682 5680 5678 5676 5673 5672 5670 5668 5668 5665 5662 5659 5657 5656 5655 5653 5652 5651 5650 5650 5650 5649 5649 5649 5650 5651 5652 5652 5652 5652 5653 5653 5654 5654 5655 5656 5657 5658
5685 5685 5684 5682 5681 5679 5677 5675 5674 5671 5668 5667 5665 5664 5663 5660 5657 5654 5652 5651 5649 5648 5646 5645 5644 5643 5643 5642 5642 5642 5642 5643 5644 5644 5644 5645 5645 5645 5645 5645 5646 5647 5648 5649
5681 5680 5679 5677 5676 5674 5673 5670 5669 5665 5662 5661 5660 5659 5658 5655 5652 5650 5647 5646 5644 5642 5641 5640 5639 5638 5637 5636 5635 5635 5635 5635 5636 5636 5636 5637 5637 5637 5637 5637 5638 5638 5639 5641
5675 5675 5674 5672 5671 5669 5668 5666 5663 5661 5658 5656 5654 5656 5652 5649 5647 5644 5642 5641 5639 5637 5636 5634 5633 5632 5631 5630 5629 5628 5628 5628 5628 5629 5629 5629 5629 5628 5628 5629 5629 5630 5631 5632
5670 5669 5668 5668 5666 5664 5662 5661 5659 5657 5654 5651 5649 5652 5647 5644 5641 5639 5637 5635 5634 5632 5630 5629 5627 5626 5625 5623 5622 5621 5621 5621 5620 5621 5621 5621 5621 5620 5620 5621 5621 5622 5623 5623
5664 5664 5663 5662 5662 5660 5657 5656 5654 5652 5649 5647 5644 5647 5642 5639 5636 5634 5632 5630 5628 5626 5624 5623 5622 5620 5619 5617 5616 5615 5614 5613 5613 5613 5614 5613 5613 5613 5612 5613 5613 5614 5614 5615
5659 5658 5658 5657 5654 5652 5651 5650 5648 5646 5643 5642 5640 5639 5637 5634 5631 5629 5627 5624 5622 5621 5619 5617 5616 5615 5613 5612 5610 5609 5608 5607 5607 5607 5606 5606 5605 5605 5605 5604 5605 5605 5606 5606
5653 5652 5651 5650 5648 5646 5645 5644 5642 5640 5638 5636 5635 5633 5631 5628 5625 5623 5621 5619 5617 5616 5614 5612 5611 5609 5608 5606 5605 5603 5602 5601 5600 5600 5600 5599 5599 5598 5598 5597 5597 5597 5598 5598
5647 5646 5645 5644 5642 5640 5638 5637 5636 5634 5632 5630 5628 5627 5625 5622 5620 5618 5616 5613 5612 5610 5609 5607 5605 5603 5602 5600 5599 5597 5596 5595 5594 5593 5593 5592 5592 5591 5590 5589 5589 5590 5590 5590
5641 5640 5638 5638 5635 5633 5632 5632 5630 5628 5626 5624 5622 5622 5619 5617 5614 5613 5610 5608 5606 5605 5603 5601 5599 5598 5596 5594 5593 5592 5590 5589 5588 5587 5586 5585 5584 5584 5583 5582 5582 5582 5582 5582
5635 5633 5631 5630 5629 5627 5629 5625 5623 5621 5620 5618 5616 5615 5612 5610 5608 5607 5604 5602 5601 5599 5598 5596 5594 5592 5590 5589 5588 5586 5585 5584 5582 5581 5580 5579 5577 5576 5576 5575 5574 5574 5575 5575
5628 5626 5624 5623 5621 5620 5621 5619 5616 5614 5614 5612 5610 5608 5606 5604 5603 5601 5599 5597 5595 5594 5592 5590 5588 5586 5585 5583 5582 5580 5579 5578 5576 5575 5573 5572 5571 5570 5569 5567 5566 5566 5567 5567
5621 5620 5619 5616 5614 5613 5616 5613 5609 5609 5607 5606 5603 5602 5600 5598 5597 5596 5593 5591 5590 5588 5586 5584 5582 5581 5579 5577 5576 5575 5573 5572 5570 5568 5567 5565 5564 5563 5561 5560 5559 5559 5559 5560
5614 5612 5611 5609 5607 5607 5608 5606 5604 5603 5603 5600 5597 5595 5593 5592 5591 5589 5587 5585 5584 5582 5580 5578 5576 5575 5573 5572 5570 5569 5567 5566 5564 5562 5560 5559 5557 5556 5555 5553 5553 5552 5552 5552
5607 5606 5605 5603 5601 5603 5601 5599 5598 5597 5595 5593 5591 5589 5587 5586 5584 5582 5580 5579 5577 5576 5574 5572 5571 5569 5567 5566 5564 5562 5561 5560 5558 5556 5554 5552 5551 5549 5548 5547 5546 5545 5545 5545
5600 5600 5598 5597 5598 5596 5594 5592 5591 5589 5588 5587 5585 5583 5581 5579 5577 5576 5574 5572 5571 5569 5567 5566 5564 5563 5561 5559 5557 5556 5554 5553 5551 5549 5547 5546 5544 5542 5541 5540 5539 5539 5539 5539
5594 5593 5591 5590 5590 5588 5587 5585 5584 5583 5581 5580 5578 5576 5574 5573 5571 5569 5567 5565 5564 5562 5561 5559 5558 5556 5555 5553 5551 5550 5548 5546 5544 5542 5540 5539 5537 5535 5534 5533 5532 5532 5532 5532
5588 5586 5584 5583 5583 5582 5581 5579 5578 5576 5575 5573 5572 5570 5568 5566 5564 5562 5560 5558 5556 5555 5554 5552 5551 5550 5548 5547 5545 5543 5541 5539 5537 5535 5533 5532 5530 5529 5527 5526 5525 5525 5525 5524
5581 5580 5578 5577 5577 5575 5575 5573 5571 5570 5568 5567 5565 5563 5561 5559 5557 5555 5552 5550 5549 5547 5546 5545 5544 5542 5541 5540 5538 5536 5534 5532 5530 5528 5526 5525 5523 5522 5520 5520 5519 5518 5518 5517